LogoCoinalyze
    Ad-Free Version Home Markten Financieringspercentages
    Futures data
    • Aggregated data (Munten)
    • Individuele grafieken
    • Globale grafieken
    Meldingen
    TA
    Bitcoin Ethereum BNB Ripple Tron Dogecoin ZCash Monero UNUS SED LEO Chainlink Cardano Stellar Lumens Bitcoin Cash Litecoin Hedera Cronos Polkadot Ethereum Classic Algorand Cosmos Quant VeChain Dash Bitcoin SV BitTorrent Terra Tezos Decred Iota The Graph THETA MultiversX Decentraland NEO Chiliz Golem Basic Attention Token Horizen Qtum DigiByte 0x Beam RIF Token FTX Token Holo FUNToken aelf Zilliqa Ontology Nano Enjin Coin Ravencoin Mask Network Verge Siacoin Status WINk Waves IoTeX iExec RLC Power Ledger Steem Kyber Network Crystal Lisk Ark Ardor WOO Network IOST WAX Icon Storj Loopring Wanchain Bitcoin Diamond Augur AdEx Bitcoin Gold OmiseGO NEM MonaCoin BitShares Ren Komodo V Systems Nuls Mithril SOLVE Maker EOS Aion Nebulas HedgeTrade Bread Fetch.ai TomoChain Polygon Fantom Waltonchain GXChain Bytom Metaverse ETP MaidSafeCoin QASH
    Rangschikken op:
    Meer
    • API
    • Candlestick-patronen
    • Doneer
    • Contact
    • Sitemap
    • Privacy Policy
    • Disclaimer
    • Theme:
    Nederlands
    • English
    • Français
    • Русский
    • Deutsch
    • Türkçe
    • Português (BR)
    • Español
    • 한국어
    • 简体中文
    • 日本語
     
    Aanmelden / Registreren
    Markets/ Pepe/ PEPE naar USDC/ PEPEUSDC Binance
    Trades
    WL
    Chat
    Stats
    Nieuws
    ⦷
    AAA
    0.00000345 6245633.00000000 10:51:58
    0.00000345 331387.00000000 10:51:37
    0.00000345 329998200.00000000 10:51:37
    0.00000344 1275188.00000000 10:50:53
    0.00000344 3127248.00000000 10:50:26
    0.00000345 27097218.00000000 10:48:28
    0.00000345 6810557.00000000 10:48:17
    0.00000344 514908.00000000 10:46:52
    0.00000344 5234580.00000000 10:45:30
    0.00000344 1602050.00000000 10:43:25
    0.00000344 1627192.00000000 10:42:52
    0.00000344 6948979.00000000 10:39:27
    0.00000345 948760.00000000 10:38:56
    0.00000344 1262156.00000000 10:38:56
    0.00000344 997218.00000000 10:38:29
    0.00000344 997218.00000000 10:37:22
    0.00000343 1843330.00000000 10:37:21
    0.00000344 300798902.00000000 10:37:20
    0.00000344 5006697.00000000 10:37:08
    0.00000345 997218.00000000 10:34:52
    0.00000345 8625187.00000000 10:34:17
    0.00000345 8671190.00000000 10:31:10
    0.00000345 993969.00000000 10:31:06
    0.00000344 1413458.00000000 10:30:54
    0.00000345 2374362.00000000 10:30:24
    0.00000345 17585768.00000000 10:29:23
    0.00000346 5780346.00000000 10:24:34
    0.00000346 991815.00000000 10:23:17
    0.00000346 1100742.00000000 10:22:52
    0.00000347 1345855.00000000 10:22:52
    0.00000346 11573869.00000000 10:22:48
    0.00000347 659527.00000000 10:22:27
    0.00000346 13287529.00000000 10:21:36
    0.00000346 26760400.00000000 10:21:20
    0.00000346 990738.00000000 10:21:09
    0.00000346 29653500.00000000 10:21:09
    0.00000346 440571800.00000000 10:21:09
    0.00000346 110260000.00000000 10:21:06
    0.00000346 3169583.00000000 10:20:34
    0.00000345 1407271552.00000000 10:18:14
    0.00000345 331323.00000000 10:17:28
    0.00000345 284068582.00000000 10:17:28
    0.00000345 2672947.00000000 10:17:13
    0.00000345 995052.00000000 10:16:03
    0.00000345 7071435.00000000 10:15:15
    0.00000345 100000000.00000000 10:14:29
    0.00000345 15.00000000 10:14:09
    0.00000345 29653600.00000000 10:14:09
    0.00000345 44930022.00000000 10:13:55
    0.00000345 582184.00000000 10:13:39
    0.00000345 1794320.00000000 10:13:38
    0.00000346 144530326.00000000 10:12:15
    0.00000345 4325737.00000000 10:11:23
    0.00000345 3160214.00000000 10:10:57
    0.00000345 993969.00000000 10:09:30
    0.00000345 799690419.00000000 10:09:09
    0.00000346 2262846.00000000 10:09:00
    0.00000345 10498264.00000000 10:04:24
    0.00000345 1117684.00000000 10:02:52
    0.00000345 3026471.00000000 10:02:31
    0.00000345 331323.00000000 10:01:58
    0.00000345 26100000.00000000 10:01:58
    0.00000345 993969.00000000 10:01:45
    0.00000345 56000000.00000000 10:01:40
    0.00000345 43700000.00000000 10:01:40
    0.00000345 51400000.00000000 10:01:39
    0.00000345 60500000.00000000 10:01:39
    0.00000345 1280173.00000000 10:01:37
    0.00000345 270513436.00000000 10:01:31
    0.00000345 55200000.00000000 10:01:31
    0.00000345 42800000.00000000 10:01:31
    0.00000345 50300000.00000000 10:01:31
    0.00000345 59200000.00000000 10:01:30
    0.00000345 74200000.00000000 10:01:30
    0.00000345 33600000.00000000 10:01:29
    0.00000345 39600000.00000000 10:01:28
    0.00000345 46500000.00000000 10:01:28
    0.00000345 54700000.00000000 10:01:28
    0.00000345 69000000.00000000 10:01:28
    0.00000345 766373293.00000000 10:01:28
    0.00000345 182205372.00000000 10:01:24
    0.00000345 205466649.00000000 10:01:24
    0.00000345 5647331.00000000 09:59:37
    0.00000345 14928135.00000000 09:58:11
    0.00000345 4204980.00000000 09:57:42
    0.00000345 706325.00000000 09:54:52
    0.00000346 1474789.00000000 09:53:01
    0.00000345 997218.00000000 09:51:38
    0.00000345 993969.00000000 09:51:12
    0.00000345 542562649.00000000 09:51:12
    0.00000345 1934670.00000000 09:50:53
    0.00000346 1784021.00000000 09:50:53
    0.00000345 442597930.00000000 09:50:48
    0.00000345 997218.00000000 09:50:46
    0.00000345 386240.00000000 09:50:17
    0.00000345 992892.00000000 09:49:30
    0.00000345 185291675.00000000 09:49:30
    0.00000346 29672751.00000000 09:49:08
    0.00000346 137334041.00000000 09:47:59
    0.00000346 1445086.00000000 09:47:45
    Afmelden
    AAA
    Help
    🙂 🤣 😎 🤗 😛 😉 😜 🤑 🤔 😑 😴 😕 🙃 😲 😇 🙁 😢 😬 😟 😠 🕺 🏃 💪 ✌ 👌 👍 👎 👏 👋 🤝 🍺 🍻 🐋 🐟 🦈 🗽 🚄 ✈ 🛑 🚀 🏦 🌚 ⭐ 🌞 ⚡ 🏆 💰 💲 🔨 ❓ ❗ 💯 🔶 🏁
    ☺
    Aanmelden of Registreren en chat
    24 Uur
    Verandering
    +2.07%
    Volume
    458,277,043,958
    Hoog
    0.00000350
    Laag
    0.00000336
    7 Dagen
    Verandering
    -10.39%
    Volume
    3,419,429,279,590
    Hoog
    0.00000401
    Laag
    0.00000336
    30 Dagen
    Verandering
    +18.56%
    Volume
    18,455,509,023,403
    Hoog
    0.00000455
    Laag
    0.00000252
    DOGE, SHIB, PEPE, or Something Else: Which Meme Coin Can Make History in September? (3 AIs Weigh In)
    "DOGE remains the most likely to record the largest move in dollar terms and lead the entire sector," ChatGPT stated.
    cryptopotato.com
    Sept 3, 2026 00:41
    Pepe price rallies 25% as whale demand and futures interest surge
    Key takeaways Pepe has gained 25% this week, including a combined 22% advance over the previous two days. Seven whale transactions worth more than $1 million each occurred Thursday, the highest...
    coinjournal.net
    Aug 21, 2026 08:41
    PEPE Supply on Exchanges Just Took a Massive Hit – What’s Next?
    A drop in PEPE exchange balances has added to bullish expectations despite muted trader interest.
    cryptopotato.com
    Aug 6, 2026 20:02
    PEPE Exchange Outflows Hit Nearly 2-Year High as Whales Accumulate
    Pepe (PEPE) recorded its largest single-day exchange outflow since November 2024, with 4.54 trillion tokens leaving trading platforms, signaling that holders are moving supply away from immediate...
    beincrypto.com
    Aug 6, 2026 04:57
    Meme Coin Based on White House Shooter Conspiracy Rallies 320%
    $HENRY surged 300% after a 2023 Pepe tweet appeared to name the White House shooter, fueling a viral time-travel meme. The post Meme Coin Based on White House Shooter Conspiracy Rallies 320%...
    beincrypto.com
    Apr 27, 2026 16:11
    PEPE surges 4% as market sentiment improves, eyes Key resistance breakout
    Key takeaways Pepe extends gains on Wednesday, stretching its rally from the 50-day EMA. Derivatives data show heightened retail activity as risk-on sentiment returns to the market. Pepe (PEPE) is...
    coinjournal.net
    Apr 22, 2026 11:44
    Why The PEPE Price Could Stage A 55X Rally To Reach New $0.0001 ATH
    The PEPE price has now started to edge back into bullish conversations after the recent inflows into the crypto market. The last time PEPE’s weekly chart printed the kind of structure now...
    newsbtc.com
    Apr 21, 2026 15:30
    Pepe (PEPE) surges 9%, drawing interest from whales
    Key takeaways PEPE is up 9% in the last 24 hours, making it one of the best performers among the top 50 cryptocurrencies by market cap. The rally comes amid renewed interest from whales and retail...
    coinjournal.net
    Apr 16, 2026 07:40
    Murad Says SPX6900 (SPX) Is Primed for a Rally — Is He Right This Time?
    Crypto influencer Murad Mahmudov claims SPX6900 (SPX) is stabilizing at the same market cap level where Dogecoin (DOGE) and Pepe (PEPE) consolidated before their explosive rallies. The...
    beincrypto.com
    Apr 5, 2026 21:36
    The Shiba Inu Of This Cycle: Analyst Shares Why It Is Better To Buy PEPE Now
    In the bull market cycle of 2021-2022, the Shiba Inu meme coin made waves in a way that changed the face of meme coins forever. This came after Dogecoin’s initial 36,000% rally, and Shiba Inu...
    newsbtc.com
    Apr 4, 2026 07:30
    PEPE Explodes by 18% Amid Altcoin Rally, BTC Tapped $74K: Market Watch
    The frog-themed meme coin is today's biggest gainer, followed by TAO, DOT, and BONK.
    cryptopotato.com
    Mar 16, 2026 10:56
    Should PEPE traders brace for volatility as short squeeze potential builds?
    The memecoin market has seen its collective market capitalization drop by 48% over the past year, and 6.9% over the past month, according to CoinMarketCap. According to Glassnode, the memecoin...
    ambcrypto.com
    Mar 7, 2026 18:00
    Typ de opdracht simpelweg in de chat. Vervang nick1 door de echte nick
    • /ignore nick1 Negeer een chatgebruiker
    • /unignore nick1 Een chatgebruiker niet meer negeren
    • /ignorelist Toon chatgebruikers die je negeert